QPF
0.04 0.04 0.03 0.03 0.04 0.05 0.05 0.06 0.04 0.04 0.03 0.04 0.04 0.05 0.06 0.06 0.04 0.04 0.05 0.06 0.08 0.09 0.11 0.15 0.10 0.07 0.06 0.05 0.04 0.03 0.03 0.03 0.03 0.03 0.03 0.02 0.02 0.02 0.03 0.03 0.04 0.05 0.06
0.04 0.04 0.04 0.04 0.03 0.05 0.08 0.12 0.09 0.06 0.05 0.05 0.05 0.06 0.06 0.05 0.04 0.03 0.04 0.04 0.06 0.07 0.09 0.16 0.14 0.08 0.06 0.05 0.04 0.03 0.03 0.03 0.03 0.04 0.04 0.03 0.03 0.02 0.02 0.02 0.02 0.03 0.06
0.02 0.01 0.01 0.02 0.02 0.06 0.10 0.11 0.09 0.07 0.05 0.05 0.05 0.05 0.06 0.06 0.05 0.04 0.03 0.03 0.05 0.06 0.08 0.09 0.13 0.11 0.07 0.05 0.04 0.02 0.02 0.03 0.03 0.03 0.04 0.04 0.03 0.02 0.02 0.02 0.02 0.03 0.04
0.01 0.01 0.01 0.02 0.02 0.02 0.04 0.04 0.03 0.03 0.03 0.04 0.05 0.04 0.04 0.06 0.07 0.06 0.03 0.03 0.04 0.05 0.05 0.05 0.07 0.09 0.07 0.04 0.03 0.02 0.02 0.02 0.01 0.01 0.02 0.03 0.03 0.02 0.02 0.01 0.02 0.03 0.04
0.01 0.01 0.01 0.02 0.02 0.02 0.03 0.02 0.01 0.01 0.02 0.03 0.05 0.04 0.05 0.08 0.07 0.07 0.04 0.02 0.03 0.04 0.04 0.03 0.03 0.05 0.05 0.04 0.03 0.01 0.01 0.01 0.01 0.01 0.01 0.02 0.02 0.02 0.02 0.01 0.01 0.02 0.03
0.01 0.01 0.02 0.02 0.01 0.02 0.02 0.02 0.01 0.01 0.02 0.03 0.04 0.04 0.04 0.06 0.06 0.05 0.04 0.02 0.02 0.03 0.04 0.02 0.02 0.02 0.03 0.03 0.02 0.02 0.01 0.01 0.01 0.01 0.01 0.01 0.02 0.02 0.02 0.02 0.02 0.03 0.03
0.02 0.02 0.01 0.01 0.01 0.01 0.01 0.01 0.01 0.01 0.02 0.03 0.04 0.04 0.03 0.03 0.04 0.03 0.02 0.02 0.02 0.03 0.03 0.02 0.02 0.02 0.02 0.02 0.02 0.01 0.01 0.01 0.01 0.01 0.01 0.02 0.02 0.02 0.03 0.03 0.03 0.03 0.03
0.01 0.01 0.01 0.00 0.01 0.01 0.01 0.01 0.01 0.02 0.03 0.04 0.03 0.02 0.01 0.01 0.02 0.03 0.03 0.03 0.03 0.03 0.02 0.02 0.02 0.02 0.02 0.01 0.01 0.01 0.01 0.01 0.01 0.01 0.01 0.01 0.01 0.02 0.02 0.03 0.03 0.03 0.03
0.01 0.00 0.00 0.00 0.01 0.01 0.01 0.01 0.01 0.02 0.03 0.03 0.02 0.02 0.01 0.01 0.02 0.03 0.04 0.04 0.04 0.02 0.02 0.02 0.01 0.01 0.01 0.01 0.01 0.01 0.01 0.01 0.01 0.01 0.01 0.01 0.02 0.03 0.03 0.03 0.04 0.04 0.03
0.01 0.00 0.00 0.01 0.01 0.01 0.01 0.01 0.01 0.02 0.04 0.03 0.02 0.02 0.02 0.03 0.03 0.03 0.04 0.03 0.02 0.01 0.00 0.01 0.01 0.01 0.01 0.01 0.01 0.02 0.02 0.02 0.02 0.02 0.02 0.02 0.03 0.03 0.04 0.05 0.06 0.06 0.05
0.01 0.01 0.02 0.02 0.01 0.01 0.02 0.02 0.02 0.03 0.07 0.07 0.05 0.03 0.03 0.04 0.04 0.03 0.04 0.03 0.01 0.00 0.01 0.01 0.01 0.01 0.01 0.02 0.02 0.02 0.02 0.03 0.03 0.02 0.02 0.02 0.03 0.04 0.03 0.03 0.05 0.06 0.06
0.01 0.01 0.02 0.02 0.02 0.02 0.03 0.04 0.06 0.06 0.08 0.06 0.05 0.04 0.03 0.03 0.03 0.03 0.05 0.03 0.01 0.00 0.01 0.01 0.01 0.01 0.01 0.02 0.01 0.01 0.02 0.04 0.03 0.02 0.02 0.02 0.03 0.04 0.05 0.04 0.04 0.04 0.04
0.01 0.02 0.04 0.07 0.05 0.04 0.04 0.04 0.05 0.04 0.03 0.03 0.04 0.04 0.02 0.01 0.02 0.04 0.03 0.01 0.01 0.01 0.00 0.01 0.01 0.01 0.01 0.01 0.02 0.02 0.02 0.03 0.02 0.02 0.02 0.02 0.04 0.05 0.05 0.04 0.03 0.03 0.03
0.01 0.02 0.05 0.07 0.05 0.04 0.04 0.03 0.02 0.01 0.01 0.01 0.01 0.01 0.01 0.01 0.02 0.02 0.01 0.01 0.01 0.01 0.00 0.01 0.01 0.01 0.01 0.01 0.02 0.02 0.02 0.02 0.02 0.02 0.02 0.03 0.04 0.04 0.05 0.04 0.03 0.03 0.03
0.02 0.02 0.02 0.03 0.03 0.03 0.02 0.01 0.01 0.01 0.01 0.01 0.01 0.00 0.00 0.00 0.01 0.01 0.02 0.02 0.01 0.00 0.00 0.00 0.01 0.01 0.01 0.01 0.01 0.01 0.02 0.01 0.01 0.01 0.02 0.03 0.03 0.04 0.06 0.06 0.05 0.04 0.02
0.01 0.01 0.02 0.02 0.02 0.02 0.01 0.01 0.01 0.01 0.01 0.00 0.00 0.00 0.00 0.00 0.00 0.01 0.02 0.02 0.01 0.01 0.01 0.00 0.01 0.01 0.01 0.01 0.01 0.02 0.02 0.02 0.02 0.02 0.02 0.02 0.03 0.04 0.05 0.06 0.06 0.06 0.04
0.01 0.01 0.02 0.03 0.03 0.02 0.01 0.01 0.01 0.01 0.00 0.00 0.00 0.00 0.01 0.01 0.01 0.01 0.01 0.01 0.01 0.01 0.00 0.01 0.01 0.01 0.01 0.01 0.02 0.02 0.02 0.02 0.02 0.02 0.02 0.02 0.02 0.03 0.02 0.03 0.04 0.05 0.04
0.01 0.01 0.02 0.03 0.03 0.02 0.01 0.01 0.00 0.00 0.00 0.00 0.01 0.01 0.01 0.01 0.02 0.01 0.01 0.01 0.01 0.01 0.01 0.01 0.01 0.01 0.01 0.01 0.01 0.01 0.01 0.01 0.01 0.01 0.01 0.01 0.01 0.01 0.02 0.02 0.02 0.04 0.04
0.01 0.01 0.02 0.02 0.02 0.02 0.01 0.01 0.01 0.00 0.00 0.01 0.01 0.01 0.01 0.01 0.01 0.01 0.01 0.01 0.01 0.01 0.01 0.01 0.01 0.01 0.01 0.01 0.01 0.01 0.00 0.00 0.01 0.01 0.01 0.01 0.01 0.01 0.02 0.01 0.02 0.03 0.03
0.02 0.01 0.01 0.01 0.01 0.02 0.01 0.01 0.01 0.01 0.02 0.02 0.02 0.02 0.01 0.01 0.01 0.01 0.01 0.01 0.01 0.01 0.01 0.01 0.01 0.01 0.01 0.01 0.01 0.01 0.00 0.00 0.01 0.01 0.01 0.01 0.01 0.01 0.01 0.01 0.01 0.01 0.02
0.03 0.02 0.01 0.01 0.01 0.01 0.01 0.01 0.01 0.02 0.03 0.03 0.02 0.02 0.01 0.01 0.01 0.01 0.01 0.01 0.01 0.00 0.00 0.00 0.00 0.00 0.00 0.01 0.01 0.01 0.01 0.00 0.01 0.01 0.01 0.01 0.01 0.01 0.01 0.02 0.03 0.03 0.03
0.03 0.03 0.02 0.01 0.01 0.01 0.01 0.01 0.02 0.03 0.03 0.02 0.02 0.02 0.01 0.01 0.01 0.01 0.01 0.01 0.01 0.00 0.00 0.00 0.00 0.01 0.01 0.01 0.01 0.01 0.02 0.02 0.02 0.02 0.02 0.01 0.01 0.01 0.01 0.01 0.03 0.06 0.07
0.03 0.03 0.02 0.01 0.01 0.01 0.01 0.01 0.01 0.01 0.01 0.01 0.01 0.01 0.01 0.01 0.01 0.02 0.02 0.01 0.01 0.01 0.01 0.01 0.02 0.02 0.02 0.02 0.02 0.01 0.01 0.01 0.02 0.02 0.02 0.01 0.01 0.01 0.00 0.01 0.01 0.01 0.05
0.02 0.03 0.02 0.02 0.01 0.00 0.00 0.01 0.01 0.01 0.01 0.01 0.01 0.01 0.01 0.01 0.01 0.01 0.01 0.01 0.01 0.01 0.01 0.00 0.00 0.01 0.00 0.00 0.00 0.00 0.00 0.00 0.00 0.01 0.01 0.01 0.01 0.01 0.01 0.01 0.01 0.01 0.01
0.02 0.02 0.02 0.02 0.01 0.01 0.01 0.01 0.00 0.00 0.01 0.01 0.01 0.01 0.01 0.01 0.01 0.01 0.01 0.01 0.00 0.00 0.00 0.00 0.00 0.00 0.00 0.00 0.00 0.00 0.00 0.00 0.01 0.01 0.01 0.01 0.01 0.01 0.01 0.01 0.01 0.01 0.02
0.01 0.01 0.01 0.01 0.02 0.02 0.02 0.02 0.01 0.00 0.01 0.01 0.01 0.01 0.01 0.01 0.01 0.01 0.01 0.01 0.00 0.00 0.00 0.00 0.00 0.00 0.00 0.00 0.00 0.00 0.00 0.01 0.01 0.01 0.01 0.01 0.01 0.01 0.01 0.01 0.01 0.01 0.02
MSLP
1009.69 1009.70 1009.74 1009.77 1009.80 1009.83 1009.89 1009.98 1010.12 1010.28 1010.46 1010.63 1010.75 1010.83 1010.85 1010.83 1010.81 1010.82 1010.93 1011.14 1011.49 1011.96 1012.54 1013.18 1013.85 1014.50 1015.10 1015.63 1016.09 1016.49 1016.86 1017.20 1017.54 1017.89 1018.23 1018.54 1018.80 1019.00 1019.10 1019.12 1019.07 1018.96 1018.84
1009.36 1009.45 1009.54 1009.60 1009.62 1009.63 1009.64 1009.68 1009.77 1009.93 1010.11 1010.30 1010.47 1010.57 1010.60 1010.58 1010.52 1010.49 1010.53 1010.69 1011.00 1011.46 1012.06 1012.74 1013.46 1014.17 1014.82 1015.39 1015.86 1016.27 1016.63 1016.98 1017.33 1017.69 1018.06 1018.42 1018.73 1018.97 1019.10 1019.14 1019.08 1018.95 1018.80
1008.96 1009.15 1009.32 1009.43 1009.46 1009.44 1009.41 1009.40 1009.45 1009.58 1009.77 1009.99 1010.19 1010.33 1010.40 1010.39 1010.33 1010.28 1010.28 1010.40 1010.67 1011.10 1011.68 1012.38 1013.12 1013.85 1014.52 1015.10 1015.59 1016.00 1016.36 1016.71 1017.07 1017.45 1017.85 1018.25 1018.61 1018.89 1019.07 1019.13 1019.08 1018.95 1018.77
1008.55 1008.84 1009.10 1009.26 1009.32 1009.29 1009.21 1009.15 1009.16 1009.26 1009.44 1009.67 1009.91 1010.11 1010.24 1010.27 1010.24 1010.19 1010.18 1010.27 1010.51 1010.91 1011.46 1012.13 1012.85 1013.58 1014.25 1014.83 1015.32 1015.73 1016.09 1016.44 1016.80 1017.20 1017.63 1018.06 1018.46 1018.79 1019.01 1019.10 1019.07 1018.94 1018.74
1008.15 1008.54 1008.89 1009.13 1009.21 1009.17 1009.06 1008.95 1008.91 1008.96 1009.12 1009.37 1009.64 1009.90 1010.10 1010.20 1010.23 1010.22 1010.23 1010.31 1010.52 1010.87 1011.38 1012.01 1012.70 1013.39 1014.04 1014.61 1015.09 1015.50 1015.85 1016.20 1016.57 1016.98 1017.42 1017.87 1018.30 1018.65 1018.90 1019.03 1019.02 1018.91 1018.72
1007.81 1008.30 1008.74 1009.03 1009.16 1009.12 1008.97 1008.81 1008.70 1008.70 1008.84 1009.08 1009.39 1009.70 1009.97 1010.16 1010.27 1010.33 1010.37 1010.47 1010.66 1010.99 1011.44 1012.01 1012.65 1013.30 1013.92 1014.46 1014.93 1015.33 1015.68 1016.03 1016.39 1016.79 1017.23 1017.68 1018.12 1018.49 1018.76 1018.91 1018.94 1018.85 1018.67
1007.54 1008.11 1008.63 1008.98 1009.14 1009.11 1008.94 1008.72 1008.56 1008.51 1008.60 1008.83 1009.15 1009.52 1009.87 1010.15 1010.35 1010.48 1010.58 1010.71 1010.90 1011.20 1011.61 1012.12 1012.70 1013.30 1013.87 1014.39 1014.84 1015.23 1015.58 1015.91 1016.27 1016.65 1017.07 1017.50 1017.92 1018.29 1018.57 1018.75 1018.80 1018.75 1018.61
1007.33 1007.96 1008.54 1008.96 1009.15 1009.12 1008.94 1008.69 1008.47 1008.37 1008.42 1008.63 1008.96 1009.36 1009.77 1010.13 1010.42 1010.64 1010.81 1010.98 1011.18 1011.46 1011.83 1012.29 1012.81 1013.36 1013.89 1014.38 1014.82 1015.20 1015.54 1015.86 1016.19 1016.55 1016.93 1017.32 1017.71 1018.06 1018.34 1018.53 1018.63 1018.62 1018.53
1007.15 1007.83 1008.46 1008.92 1009.14 1009.14 1008.95 1008.69 1008.44 1008.30 1008.31 1008.49 1008.82 1009.25 1009.70 1010.13 1010.50 1010.79 1011.02 1011.23 1011.45 1011.73 1012.07 1012.48 1012.95 1013.45 1013.95 1014.42 1014.84 1015.21 1015.54 1015.85 1016.15 1016.47 1016.80 1017.14 1017.49 1017.81 1018.08 1018.28 1018.40 1018.45 1018.42
1006.98 1007.69 1008.34 1008.83 1009.09 1009.11 1008.95 1008.69 1008.44 1008.27 1008.27 1008.43 1008.75 1009.18 1009.66 1010.13 1010.55 1010.91 1011.20 1011.45 1011.69 1011.96 1012.28 1012.67 1013.10 1013.56 1014.03 1014.48 1014.89 1015.25 1015.57 1015.86 1016.13 1016.40 1016.68 1016.97 1017.26 1017.54 1017.79 1017.99 1018.15 1018.25 1018.28
1006.80 1007.51 1008.17 1008.67 1008.96 1009.02 1008.90 1008.68 1008.45 1008.30 1008.29 1008.44 1008.75 1009.17 1009.66 1010.15 1010.61 1011.00 1011.33 1011.61 1011.88 1012.16 1012.47 1012.83 1013.24 1013.67 1014.12 1014.55 1014.95 1015.30 1015.61 1015.88 1016.12 1016.34 1016.57 1016.80 1017.03 1017.26 1017.49 1017.69 1017.87 1018.01 1018.10
1006.62 1007.29 1007.93 1008.44 1008.75 1008.86 1008.80 1008.63 1008.46 1008.35 1008.36 1008.52 1008.82 1009.23 1009.71 1010.20 1010.66 1011.08 1011.43 1011.75 1012.03 1012.32 1012.63 1012.98 1013.37 1013.78 1014.20 1014.61 1015.00 1015.34 1015.63 1015.88 1016.09 1016.28 1016.46 1016.63 1016.81 1016.99 1017.18 1017.38 1017.56 1017.73 1017.86
1006.44 1007.06 1007.66 1008.15 1008.48 1008.63 1008.64 1008.56 1008.46 1008.41 1008.46 1008.64 1008.94 1009.34 1009.80 1010.28 1010.74 1011.16 1011.53 1011.86 1012.16 1012.46 1012.78 1013.12 1013.49 1013.88 1014.28 1014.67 1015.03 1015.35 1015.62 1015.85 1016.03 1016.19 1016.32 1016.45 1016.58 1016.72 1016.88 1017.05 1017.22 1017.39 1017.55
1006.29 1006.83 1007.37 1007.83 1008.16 1008.36 1008.44 1008.45 1008.45 1008.48 1008.59 1008.80 1009.10 1009.48 1009.92 1010.37 1010.82 1011.24 1011.62 1011.96 1012.28 1012.60 1012.92 1013.26 1013.61 1013.97 1014.34 1014.69 1015.02 1015.31 1015.56 1015.76 1015.92 1016.05 1016.15 1016.25 1016.34 1016.44 1016.56 1016.70 1016.85 1017.01 1017.16
1006.16 1006.62 1007.09 1007.50 1007.83 1008.07 1008.22 1008.33 1008.42 1008.54 1008.71 1008.96 1009.27 1009.64 1010.05 1010.48 1010.91 1011.31 1011.70 1012.06 1012.40 1012.73 1013.05 1013.38 1013.72 1014.05 1014.37 1014.67 1014.95 1015.20 1015.41 1015.58 1015.72 1015.82 1015.91 1015.98 1016.05 1016.13 1016.22 1016.32 1016.43 1016.56 1016.69
1006.05 1006.41 1006.80 1007.16 1007.49 1007.76 1007.98 1008.18 1008.37 1008.57 1008.81 1009.09 1009.41 1009.77 1010.16 1010.56 1010.97 1011.37 1011.76 1012.13 1012.49 1012.83 1013.16 1013.48 1013.78 1014.07 1014.34 1014.58 1014.80 1014.99 1015.15 1015.29 1015.40 1015.50 1015.57 1015.64 1015.70 1015.76 1015.83 1015.90 1015.98 1016.06 1016.15
1005.90 1006.18 1006.49 1006.81 1007.13 1007.43 1007.72 1008.00 1008.27 1008.55 1008.85 1009.16 1009.49 1009.83 1010.20 1010.58 1010.97 1011.36 1011.76 1012.14 1012.52 1012.87 1013.21 1013.51 1013.78 1014.01 1014.22 1014.39 1014.53 1014.66 1014.77 1014.87 1014.96 1015.05 1015.13 1015.21 1015.28 1015.34 1015.39 1015.44 1015.49 1015.53 1015.57
1005.65 1005.86 1006.12 1006.41 1006.73 1007.06 1007.41 1007.76 1008.11 1008.46 1008.80 1009.13 1009.46 1009.80 1010.15 1010.50 1010.88 1011.27 1011.66 1012.06 1012.45 1012.81 1013.14 1013.43 1013.66 1013.84 1013.98 1014.08 1014.15 1014.21 1014.27 1014.33 1014.41 1014.50 1014.59 1014.69 1014.77 1014.85 1014.91 1014.95 1014.97 1014.98 1014.98
1005.27 1005.44 1005.66 1005.94 1006.27 1006.64 1007.04 1007.46 1007.87 1008.27 1008.64 1008.99 1009.33 1009.65 1009.97 1010.31 1010.67 1011.05 1011.45 1011.85 1012.24 1012.61 1012.94 1013.20 1013.40 1013.53 1013.61 1013.64 1013.65 1013.65 1013.67 1013.71 1013.78 1013.87 1013.99 1014.11 1014.22 1014.32 1014.40 1014.44 1014.45 1014.44 1014.41
1004.75 1004.89 1005.10 1005.38 1005.73 1006.15 1006.60 1007.07 1007.53 1007.97 1008.37 1008.73 1009.06 1009.37 1009.68 1009.99 1010.33 1010.70 1011.09 1011.50 1011.89 1012.26 1012.57 1012.81 1012.98 1013.08 1013.11 1013.10 1013.06 1013.03 1013.02 1013.04 1013.11 1013.22 1013.36 1013.51 1013.65 1013.78 1013.87 1013.93 1013.94 1013.92 1013.86
1004.12 1004.24 1004.45 1004.75 1005.13 1005.58 1006.08 1006.59 1007.10 1007.57 1007.99 1008.36 1008.69 1008.98 1009.27 1009.57 1009.89 1010.24 1010.62 1011.01 1011.39 1011.75 1012.05 1012.28 1012.43 1012.50 1012.51 1012.47 1012.42 1012.37 1012.36 1012.38 1012.47 1012.59 1012.75 1012.93 1013.10 1013.25 1013.36 1013.42 1013.44 1013.41 1013.34
1003.44 1003.55 1003.76 1004.07 1004.47 1004.96 1005.49 1006.04 1006.57 1007.07 1007.51 1007.88 1008.21 1008.50 1008.77 1009.05 1009.35 1009.68 1010.04 1010.41 1010.78 1011.11 1011.40 1011.62 1011.76 1011.82 1011.83 1011.80 1011.76 1011.72 1011.73 1011.78 1011.88 1012.03 1012.21 1012.40 1012.59 1012.75 1012.86 1012.93 1012.94 1012.90 1012.83
1002.79 1002.88 1003.08 1003.39 1003.80 1004.30 1004.84 1005.41 1005.97 1006.48 1006.93 1007.32 1007.65 1007.94 1008.21 1008.48 1008.76 1009.07 1009.40 1009.74 1010.08 1010.39 1010.66 1010.87 1011.01 1011.09 1011.12 1011.12 1011.11 1011.12 1011.16 1011.24 1011.37 1011.54 1011.74 1011.94 1012.12 1012.28 1012.39 1012.44 1012.44 1012.39 1012.31
1002.26 1002.31 1002.47 1002.75 1003.14 1003.62 1004.16 1004.72 1005.28 1005.80 1006.27 1006.68 1007.02 1007.33 1007.60 1007.87 1008.14 1008.42 1008.73 1009.04 1009.35 1009.63 1009.88 1010.09 1010.23 1010.33 1010.40 1010.45 1010.49 1010.55 1010.64 1010.77 1010.94 1011.13 1011.33 1011.52 1011.69 1011.83 1011.91 1011.94 1011.92 1011.86 1011.76
1001.88 1001.86 1001.95 1002.17 1002.50 1002.94 1003.44 1003.97 1004.52 1005.04 1005.52 1005.94 1006.31 1006.64 1006.93 1007.21 1007.48 1007.76 1008.05 1008.33 1008.61 1008.87 1009.10 1009.30 1009.46 1009.59 1009.69 1009.79 1009.90 1010.02 1010.17 1010.35 1010.54 1010.74 1010.94 1011.12 1011.27 1011.37 1011.42 1011.42 1011.38 1011.30 1011.20
1001.66 1001.54 1001.53 1001.65 1001.89 1002.24 1002.67 1003.15 1003.66 1004.17 1004.65 1005.10 1005.50 1005.86 1006.19 1006.50 1006.79 1007.08 1007.36 1007.63 1007.88 1008.12 1008.34 1008.53 1008.70 1008.86 1009.01 1009.16 1009.32 1009.50 1009.70 1009.91 1010.13 1010.34 1010.53 1010.69 1010.81 1010.88 1010.89 1010.87 1010.80 1010.71 1010.61
Thickness
5743 5741 5739 5737 5734 5731 5728 5725 5722 5720 5717 5713 5709 5705 5702 5699 5697 5695 5694 5692 5690 5688 5687 5685 5683 5682 5680 5678 5676 5675 5673 5672 5673 5672 5673 5675 5677 5679 5681 5683 5685 5687 5689
5737 5737 5736 5734 5730 5728 5726 5722 5720 5717 5713 5710 5706 5703 5699 5696 5694 5692 5690 5689 5686 5684 5683 5681 5679 5678 5675 5673 5671 5669 5667 5667 5666 5665 5664 5664 5667 5671 5675 5676 5679 5681 5682
5734 5734 5732 5730 5728 5725 5722 5721 5717 5714 5711 5707 5703 5699 5695 5692 5689 5687 5686 5685 5683 5681 5680 5678 5675 5673 5671 5669 5667 5665 5663 5661 5660 5660 5658 5656 5657 5660 5665 5668 5671 5673 5675
5734 5731 5729 5727 5725 5723 5721 5718 5715 5711 5708 5704 5699 5695 5690 5686 5685 5683 5682 5681 5680 5678 5676 5674 5672 5669 5667 5665 5663 5662 5659 5657 5655 5654 5654 5655 5655 5653 5654 5659 5662 5665 5666
5732 5729 5727 5725 5723 5721 5717 5714 5710 5707 5703 5700 5696 5691 5687 5684 5682 5680 5678 5676 5675 5674 5672 5670 5667 5665 5663 5661 5659 5657 5655 5653 5651 5650 5649 5649 5648 5648 5647 5649 5652 5655 5658
5730 5727 5725 5722 5719 5717 5713 5709 5706 5702 5699 5695 5692 5688 5684 5681 5678 5676 5673 5672 5670 5669 5668 5666 5663 5661 5659 5657 5655 5653 5651 5650 5648 5647 5646 5645 5644 5643 5642 5643 5645 5647 5650
5726 5722 5719 5717 5715 5711 5708 5705 5702 5697 5695 5691 5688 5685 5682 5679 5676 5673 5670 5667 5665 5664 5663 5662 5659 5657 5655 5654 5652 5650 5648 5646 5645 5643 5642 5641 5641 5640 5639 5638 5639 5640 5642
5722 5719 5717 5714 5711 5708 5705 5702 5698 5694 5691 5688 5684 5682 5679 5676 5673 5671 5667 5664 5662 5660 5659 5657 5655 5653 5651 5650 5648 5646 5644 5643 5641 5640 5639 5637 5637 5636 5635 5634 5634 5633 5635
5718 5716 5713 5710 5707 5704 5702 5699 5695 5692 5689 5685 5682 5678 5676 5673 5670 5668 5664 5661 5659 5657 5655 5653 5651 5649 5647 5646 5644 5642 5640 5639 5637 5635 5634 5633 5632 5631 5631 5630 5630 5629 5629
5713 5711 5709 5706 5704 5701 5699 5696 5693 5690 5686 5683 5679 5676 5673 5670 5667 5664 5660 5658 5656 5654 5652 5650 5648 5645 5643 5642 5640 5638 5636 5634 5633 5631 5630 5629 5628 5627 5626 5625 5624 5624 5624
5708 5706 5705 5704 5701 5698 5696 5693 5690 5686 5683 5680 5676 5672 5669 5667 5663 5660 5658 5655 5653 5650 5648 5646 5643 5641 5639 5638 5636 5634 5633 5631 5629 5628 5626 5624 5623 5622 5621 5619 5619 5618 5618
5705 5703 5701 5699 5697 5694 5692 5690 5686 5683 5680 5676 5673 5670 5666 5664 5660 5657 5655 5652 5649 5647 5644 5642 5639 5637 5635 5634 5632 5630 5629 5627 5625 5624 5622 5620 5619 5617 5616 5614 5613 5612 5612
5701 5699 5697 5694 5692 5690 5688 5685 5682 5680 5677 5674 5669 5666 5662 5659 5656 5653 5651 5649 5646 5644 5641 5638 5636 5634 5632 5630 5629 5627 5625 5624 5622 5620 5618 5616 5614 5613 5611 5610 5608 5607 5607
5697 5694 5691 5689 5688 5686 5684 5682 5679 5677 5674 5670 5665 5661 5658 5655 5652 5650 5648 5645 5643 5640 5638 5635 5633 5631 5629 5627 5625 5624 5622 5620 5619 5617 5615 5613 5611 5609 5608 5606 5604 5603 5601
5692 5690 5687 5685 5683 5681 5679 5678 5676 5673 5670 5666 5662 5658 5655 5651 5648 5646 5644 5642 5639 5637 5635 5632 5630 5628 5626 5624 5622 5620 5618 5616 5614 5612 5610 5609 5607 5606 5603 5602 5600 5598 5597
5689 5687 5685 5681 5679 5678 5676 5674 5672 5669 5666 5662 5658 5655 5651 5648 5645 5642 5640 5637 5635 5633 5631 5628 5626 5624 5623 5621 5618 5616 5614 5611 5609 5607 5605 5604 5603 5601 5599 5597 5595 5593 5591
5686 5684 5682 5679 5676 5674 5673 5670 5668 5665 5662 5658 5655 5652 5648 5644 5641 5639 5636 5634 5631 5629 5626 5625 5623 5620 5618 5616 5614 5612 5609 5607 5604 5602 5600 5599 5598 5596 5594 5592 5590 5588 5586
5682 5680 5678 5676 5674 5671 5670 5667 5664 5661 5658 5654 5651 5648 5645 5642 5638 5635 5632 5630 5627 5625 5623 5621 5619 5616 5615 5612 5609 5607 5605 5602 5599 5597 5595 5593 5592 5591 5589 5588 5585 5583 5582
5679 5676 5674 5673 5671 5669 5666 5664 5660 5657 5654 5651 5648 5645 5643 5639 5635 5631 5628 5626 5624 5621 5619 5618 5615 5612 5611 5608 5606 5603 5600 5597 5595 5593 5591 5589 5588 5586 5584 5582 5580 5579 5577
5674 5672 5671 5669 5667 5665 5662 5659 5656 5653 5650 5648 5645 5643 5640 5636 5632 5628 5625 5623 5620 5618 5616 5614 5612 5609 5607 5605 5602 5599 5596 5593 5591 5589 5587 5585 5583 5580 5578 5576 5574 5573 5572
5670 5668 5666 5664 5662 5660 5657 5654 5651 5648 5647 5645 5642 5640 5636 5633 5629 5625 5622 5619 5617 5614 5611 5609 5608 5605 5603 5601 5598 5595 5592 5589 5587 5585 5583 5581 5578 5576 5573 5571 5569 5568 5566
5664 5663 5660 5658 5657 5655 5652 5649 5646 5645 5643 5640 5638 5635 5632 5629 5626 5621 5618 5615 5612 5609 5606 5604 5603 5601 5599 5596 5594 5591 5588 5585 5582 5581 5579 5576 5574 5571 5569 5567 5565 5563 5561
5657 5656 5654 5652 5651 5650 5647 5644 5643 5640 5638 5635 5632 5630 5627 5624 5620 5617 5613 5610 5607 5604 5601 5599 5597 5596 5595 5592 5590 5587 5584 5581 5578 5576 5574 5571 5569 5566 5564 5562 5559 5557 5555
5651 5650 5648 5646 5645 5644 5642 5641 5639 5636 5633 5629 5626 5624 5621 5618 5615 5612 5609 5606 5603 5600 5597 5595 5593 5591 5590 5588 5585 5583 5580 5577 5574 5571 5569 5566 5563 5561 5558 5556 5554 5552 5550
5644 5643 5642 5641 5640 5639 5637 5636 5634 5631 5627 5624 5621 5618 5615 5612 5609 5607 5603 5601 5598 5595 5593 5591 5588 5586 5585 5584 5580 5577 5576 5573 5570 5566 5564 5561 5558 5556 5553 5550 5548 5546 5544
5638 5636 5636 5635 5635 5634 5632 5631 5628 5626 5622 5619 5616 5613 5609 5606 5604 5601 5598 5596 5593 5591 5588 5586 5583 5581 5579 5578 5576 5573 5571 5568 5564 5561 5558 5555 5552 5549 5547 5544 5542 5540 5538